| time (UTC) | temp F | wind direction | speed MPH | gust MPH | rain 1hr in | rain 24hr in | rain mn in | humidity % | barometer mb |
| 20260509101027 | 89 | 0 | 0.0 | 0.0 | 0.00 | 0.00 | 0.00 | 66 | 977.0 |
| 20260509095515 | 90 | 0 | 0.0 | 0.0 | 0.00 | 0.00 | 0.00 | 67 | 977.0 |
| 20260509094003 | 89 | 0 | 0.0 | 0.0 | 0.00 | 0.00 | 0.00 | 67 | 977.0 |
| 20260509092450 | 90 | 0 | 0.0 | 0.0 | 0.00 | 0.00 | 0.00 | 66 | 977.0 |
| 20260509090938 | 91 | 0 | 0.0 | 0.0 | 0.00 | 0.00 | 0.00 | 68 | 977.0 |
| 20260509085426 | 91 | 0 | 0.0 | 0.0 | 0.00 | 0.00 | 0.00 | 69 | 977.0 |
| 20260509083357 | 90 | 0 | 0.0 | 0.0 | 0.00 | 0.00 | 0.00 | 83 | 977.0 |
| 20260509082943 | 89 | 0 | 0.0 | 0.0 | 0.00 | 0.00 | 0.00 | 84 | 977.0 |
| 20260509082713 | 89 | 0 | 0.0 | 0.0 | 0.00 | 0.00 | 0.00 | 85 | 977.0 |
| 20260509080358 | 88 | 0 | 0.0 | 0.0 | 0.00 | 0.00 | 0.00 | 89 | 978.0 |
| 20260509074926 | 87 | 0 | 0.0 | 0.0 | 0.00 | 0.00 | 0.00 | 91 | 978.0 |
| 20260509074642 | 87 | 0 | 0.0 | 0.0 | 0.00 | 0.00 | 0.00 | 92 | 978.0 |
| 20260509073738 | 87 | 0 | 0.0 | 0.0 | 0.00 | 0.00 | 0.00 | 92 | 978.0 |
| 20260509072224 | 87 | 0 | 0.0 | 0.0 | 0.00 | 0.00 | 0.00 | 93 | 979.0 |
| 20260509070713 | 87 | 0 | 0.0 | 0.0 | 0.00 | 0.00 | 0.00 | 95 | 979.0 |
| 20260509065437 | 87 | 0 | 0.0 | 0.0 | 0.00 | 0.00 | 0.00 | 96 | 979.0 |
| 20260509063816 | 86 | 0 | 0.0 | 0.0 | 0.00 | 0.00 | 0.00 | 97 | 979.0 |
| 20260509062306 | 85 | 0 | 0.0 | 0.0 | 0.00 | 0.00 | 0.00 | 97 | 980.0 |
| 20260509060748 | 85 | 0 | 0.0 | 0.0 | 0.00 | 0.00 | 0.00 | 99 | 980.0 |
| 20260509055233 | 84 | 0 | 0.0 | 0.0 | 0.00 | 0.00 | 0.00 | 96 | 980.0 |
| 20260509053736 | 86 | 0 | 0.0 | 0.0 | 0.00 | 0.00 | 0.00 | 91 | 980.0 |
| 20260509052947 | 87 | 0 | 0.0 | 0.0 | 0.00 | 0.00 | 0.00 | 87 | 981.0 |
| 20260509051354 | 90 | 0 | 0.0 | 0.0 | 0.00 | 0.00 | 0.00 | 68 | 981.0 |
| 20260509045842 | 92 | 0 | 0.0 | 0.0 | 0.00 | 0.00 | 0.00 | 64 | 981.0 |
| 20260509044330 | 92 | 0 | 0.0 | 0.0 | 0.00 | 0.00 | 0.00 | 68 | 981.0 |
| 20260509042817 | 93 | 0 | 0.0 | 0.0 | 0.00 | 0.00 | 0.00 | 63 | 981.0 |
| 20260509041305 | 92 | 0 | 0.0 | 0.0 | 0.00 | 0.00 | 0.00 | 67 | 982.0 |
| 20260509040011 | 91 | 0 | 0.0 | 0.0 | 0.00 | 0.00 | 0.00 | 74 | 982.0 |
| 20260509035122 | 91 | 0 | 0.0 | 0.0 | 0.00 | 0.00 | 0.00 | 74 | 982.0 |
| 20260509033610 | 90 | 0 | 0.0 | 0.0 | 0.00 | 0.00 | 0.00 | 76 | 982.0 |
| 20260509032057 | 88 | 0 | 0.0 | 0.0 | 0.00 | 0.00 | 0.00 | 82 | 982.0 |
| 20260509030827 | 87 | 0 | 0.0 | 0.0 | 0.00 | 0.00 | 0.00 | 86 | 983.0 |
| 20260509025315 | 86 | 0 | 0.0 | 0.0 | 0.00 | 0.00 | 0.00 | 92 | 983.0 |
| 20260509023650 | 85 | 0 | 0.0 | 0.0 | 0.00 | 0.00 | 0.00 | 95 | 983.0 |
| 20260509022138 | 85 | 0 | 0.0 | 0.0 | 0.00 | 0.00 | 0.00 | 99 | 983.0 |
| 20260509020625 | 84 | 0 | 0.0 | 0.0 | 0.00 | 0.00 | 0.00 | 99 | 983.0 |
| 20260509015113 | 85 | 0 | 0.0 | 0.0 | 0.00 | 0.00 | 0.00 | 99 | 983.0 |
| 20260509013601 | 84 | 0 | 0.0 | 0.0 | 0.00 | 0.00 | 0.00 | 99 | 982.0 |
| 20260509012049 | 83 | 0 | 0.0 | 0.0 | 0.00 | 0.00 | 0.00 | 99 | 982.0 |
| 20260509010537 | 83 | 0 | 0.0 | 0.0 | 0.00 | 0.00 | 0.00 | 99 | 982.0 |
| 20260509005024 | 83 | 0 | 0.0 | 0.0 | 0.00 | 0.00 | 0.00 | 99 | 982.0 |
| 20260509003512 | 82 | 0 | 0.0 | 0.0 | 0.00 | 0.00 | 0.00 | 99 | 982.0 |
| 20260509002000 | 82 | 0 | 0.0 | 0.0 | 0.00 | 0.00 | 0.00 | 99 | 982.0 |
| 20260509000448 | 81 | 0 | 0.0 | 0.0 | 0.00 | 0.00 | 0.00 | 99 | 982.0 |
| 20260508234935 | 81 | 0 | 0.0 | 0.0 | 0.00 | 0.00 | 0.00 | 99 | 982.0 |
| 20260508233422 | 81 | 0 | 0.0 | 0.0 | 0.00 | 0.00 | 0.00 | 99 | 981.0 |
| 20260508231910 | 81 | 0 | 0.0 | 0.0 | 0.00 | 0.00 | 0.00 | 99 | 981.0 |
| 20260508230358 | 80 | 0 | 0.0 | 0.0 | 0.00 | 0.00 | 0.00 | 99 | 981.0 |
| 20260508224846 | 81 | 0 | 0.0 | 0.0 | 0.00 | 0.00 | 0.00 | 99 | 981.0 |
| 20260508223333 | 81 | 0 | 0.0 | 0.0 | 0.00 | 0.00 | 0.00 | 99 | 980.0 |
| 20260508221821 | 80 | 0 | 0.0 | 0.0 | 0.00 | 0.00 | 0.00 | 99 | 980.0 |
| 20260508220309 | 81 | 0 | 0.0 | 0.0 | 0.00 | 0.00 | 0.00 | 99 | 980.0 |
| 20260508215033 | 81 | 0 | 0.0 | 0.0 | 0.00 | 0.00 | 0.00 | 99 | 980.0 |
| 20260508213521 | 81 | 0 | 0.0 | 0.0 | 0.00 | 0.00 | 0.00 | 99 | 980.0 |
| 20260508212009 | 81 | 0 | 0.0 | 0.0 | 0.00 | 0.00 | 0.00 | 99 | 980.0 |
| 20260508210456 | 80 | 0 | 0.0 | 0.0 | 0.00 | 0.00 | 0.00 | 99 | 980.0 |
| 20260508204944 | 80 | 0 | 0.0 | 0.0 | 0.00 | 0.00 | 0.00 | 99 | 979.0 |
| 20260508203432 | 80 | 0 | 0.0 | 0.0 | 0.00 | 0.00 | 0.00 | 99 | 979.0 |
| 20260508201920 | 80 | 0 | 0.0 | 0.0 | 0.00 | 0.00 | 0.00 | 99 | 979.0 |
| 20260508200408 | 80 | 0 | 0.0 | 0.0 | 0.00 | 0.00 | 0.00 | 99 | 979.0 |
| 20260508194856 | 80 | 0 | 0.0 | 0.0 | 0.00 | 0.00 | 0.00 | 99 | 979.0 |
| 20260508193343 | 80 | 0 | 0.0 | 0.0 | 0.00 | 0.00 | 0.00 | 99 | 979.0 |
| 20260508191831 | 80 | 0 | 0.0 | 0.0 | 0.00 | 0.00 | 0.00 | 99 | 980.0 |
| 20260508190319 | 80 | 0 | 0.0 | 0.0 | 0.00 | 0.00 | 0.00 | 99 | 980.0 |
| 20260508184807 | 80 | 0 | 0.0 | 0.0 | 0.00 | 0.00 | 0.00 | 99 | 980.0 |
| 20260508183254 | 81 | 0 | 0.0 | 0.0 | 0.00 | 0.00 | 0.00 | 99 | 979.0 |
| 20260508181742 | 81 | 0 | 0.0 | 0.0 | 0.00 | 0.00 | 0.00 | 99 | 979.0 |
| 20260508180229 | 81 | 0 | 0.0 | 0.0 | 0.00 | 0.00 | 0.00 | 99 | 980.0 |
| 20260508174717 | 81 | 0 | 0.0 | 0.0 | 0.00 | 0.00 | 0.00 | 99 | 980.0 |
| 20260508173205 | 81 | 0 | 0.0 | 0.0 | 0.00 | 0.00 | 0.00 | 99 | 980.0 |
| 20260508171652 | 80 | 0 | 0.0 | 0.0 | 0.00 | 0.00 | 0.00 | 99 | 980.0 |
| 20260508170140 | 80 | 0 | 0.0 | 0.0 | 0.00 | 0.00 | 0.00 | 99 | 981.0 |
| 20260508164628 | 80 | 0 | 0.0 | 0.0 | 0.00 | 0.00 | 0.00 | 99 | 981.0 |
| 20260508163116 | 80 | 0 | 0.0 | 0.0 | 0.00 | 0.00 | 0.00 | 99 | 981.0 |
| 20260508161604 | 81 | 0 | 0.0 | 0.0 | 0.00 | 0.00 | 0.00 | 99 | 981.0 |
| 20260508160052 | 81 | 0 | 0.0 | 0.0 | 0.00 | 0.00 | 0.00 | 99 | 981.0 |
| 20260508154539 | 81 | 0 | 0.0 | 0.0 | 0.00 | 0.00 | 0.00 | 99 | 981.0 |
| 20260508153027 | 81 | 0 | 0.0 | 0.0 | 0.00 | 0.00 | 0.00 | 99 | 981.0 |
| 20260508151515 | 81 | 0 | 0.0 | 0.0 | 0.00 | 0.00 | 0.00 | 99 | 981.0 |
| 20260508150003 | 81 | 0 | 0.0 | 0.0 | 0.00 | 0.00 | 0.00 | 99 | 981.0 |
| 20260508144450 | 80 | 0 | 0.0 | 0.0 | 0.00 | 0.00 | 0.00 | 99 | 980.0 |
| 20260508142938 | 81 | 0 | 0.0 | 0.0 | 0.00 | 0.00 | 0.00 | 99 | 980.0 |
| 20260508141426 | 80 | 0 | 0.0 | 0.0 | 0.00 | 0.00 | 0.00 | 99 | 980.0 |
| 20260508135913 | 81 | 0 | 0.0 | 0.0 | 0.00 | 0.00 | 0.00 | 97 | 979.0 |
| 20260508134401 | 82 | 0 | 0.0 | 0.0 | 0.00 | 0.00 | 0.00 | 95 | 979.0 |
| 20260508132849 | 83 | 0 | 0.0 | 0.0 | 0.00 | 0.00 | 0.00 | 96 | 979.0 |
| 20260508131337 | 82 | 0 | 0.0 | 0.0 | 0.00 | 0.00 | 0.00 | 94 | 978.0 |
| 20260508125824 | 83 | 0 | 0.0 | 0.0 | 0.00 | 0.00 | 0.00 | 97 | 978.0 |
| 20260508124312 | 83 | 0 | 0.0 | 0.0 | 0.00 | 0.00 | 0.00 | 91 | 978.0 |
| 20260508122936 | 83 | 0 | 0.0 | 0.0 | 0.00 | 0.00 | 0.00 | 95 | 978.0 |
| 20260508121424 | 82 | 0 | 0.0 | 0.0 | 0.00 | 0.00 | 0.00 | 92 | 977.0 |
| 20260508115912 | 80 | 0 | 0.0 | 0.0 | 0.00 | 0.00 | 0.00 | 92 | 977.0 |
| 20260508114359 | 80 | 0 | 0.0 | 0.0 | 0.00 | 0.00 | 0.00 | 81 | 977.0 |
| 20260508112847 | 88 | 0 | 0.0 | 0.0 | 0.00 | 0.00 | 0.00 | 57 | 976.0 |
| 20260508111335 | 91 | 0 | 0.0 | 0.0 | 0.00 | 0.00 | 0.00 | 54 | 976.0 |
| 20260508105823 | 97 | 0 | 0.0 | 0.0 | 0.00 | 0.00 | 0.00 | 48 | 975.0 |
| 20260508104311 | 97 | 0 | 0.0 | 0.0 | 0.00 | 0.00 | 0.00 | 50 | 975.0 |
| 20260508103014 | 98 | 0 | 0.0 | 0.0 | 0.00 | 0.00 | 0.00 | 48 | 975.0 |